Location: Savignano sul Rubicone
(44.0950°N, 12.4090°E)
Time: 14:30:30
(UTC+01:00)

N. Korean satellite - Visible Passes

Search period start: 19 February 2019 00:00
Search period end: 01 March 2019 00:00
Orbit: 457 x 510 km, 97.2° (Epoch: 18 February)

Date Brightness Start Highest point End Pass type
(mag) Time Alt. Az. Time Alt. Az. Time Alt. Az.
19 Feb 8.2 06:01:33 10° NNE 06:04:48 37° E 06:08:01 10° SSE visible
19 Feb 9.1 18:11:55 10° SSW 18:15:08 28° W 18:18:20 10° NW visible
20 Feb 9.6 05:37:24 10° NE 05:39:56 19° E 05:42:26 10° SE visible
22 Feb 6.8 06:20:34 10° NNE 06:24:02 71° ESE 06:27:27 10° S visible
22 Feb 10.0 18:32:01 10° SW 18:34:27 17° W 18:36:53 10° NW visible
23 Feb 8.5 05:56:05 10° NNE 05:59:13 32° E 06:02:20 10° SSE visible
24 Feb 9.8 05:32:05 10° NE 05:34:20 16° E 05:36:33 10° SE visible
26 Feb 7.2 06:15:01 10° NNE 06:18:26 59° E 06:21:49 10° S visible
26 Feb 9.9 18:26:12 10° SW 18:28:51 19° W 18:31:29 10° NW visible
27 Feb 8.9 05:50:36 10° NE 05:53:36 27° E 05:56:34 10° SSE visible
28 Feb 10.0 05:26:46 10° ENE 05:28:40 14° E 05:30:33 10° SE visible
